Lageos 2

operational
NORAD ID: 22195 Int'l Des: 1992-070 Owner: ASI Country: I
MEO

Über Lageos 2

Beschreibung wird geladen...

Live-Position

3D-Globus wird geladen...

Nächste Überflüge

Höhenverlauf

Altitude vs Time

uPlot chart will show altitude changes over time

Zweizeiliger Elementsatz

1 22195U 92070B 26063.18295781 -.00000009 00000-0 00000+0 0 9994
2 22195 52.6796 333.0220 0137776 141.4162 15.2959 6.47293323788620
Epoch: 4. März 2026 • Age: 14 hours

Aktueller Status

Höhe 5846.0 km
Geschwindigkeit 5.70 km/s
Subsatellitenpunkt 22.90°N, 24.09°W
Startdatum 22. Okt. 1992
Alter 33.3 years
Typ other

Technische Details

Klassifizierung Payload
Masse 405.00 kg
Trockenmasse 405.00 kg
Gesamtmasse 405.00 kg
Länge 0.60 m
Durchmesser 0.60 m
Spannweite 0.60 m
Form Sphere
Hersteller ALEN
Bus-Typ Lageos
Phasenstatus In Orbit
Besitzer/Staat ASI/I

Große Konstellationen

Loading constellations...